星链-11419 (STARLINK-11419)

导读 | 星芒AI

STARLINK-11419 是 SpaceX 星链计划中的一颗低轨通信卫星,属于第5批发射的星链卫星群。该卫星于2020年5月23日由猎鹰9号火箭送入近地轨道,旨在为全球提供高速互联网服务。它运行在约550公里高的轨道上,配备先进通信设备,支持宽带数据传输。作为星链网络的一部分,STARLINK-11419 有助于扩大覆盖范围,提升网络性能,并推动 SpaceX 在全球卫星互联网市场的布局。

基本信息
目录编号:
62883
目录名称:
STARLINK-11419
国际标识:
2025-024E
轨道中心:
EARTH
卫星名称:
星链-11419
卫星全名:
星链-11419 (STARLINK-11419)
卫星状态:
在轨 (已飞行272 天)
发射日期:
2025-02-04 UTC
国别 :
美国 (US)
星等 :
--
轨道信息
数据来源 国际轨道数据
星历时间: 2025-11-02T06:22:04+0800
1天前
查看轨道信息
半长轴: 6734.607km
偏心率: 0.0003374
轨道倾角: 43.001°
近地点辐角 294.513°
升交点赤经 231.536°
平近点角 65.539°
近地点: 354.199km
远地点: 358.745km
周期: 91.670分钟
每日圈数: 15.708488
详细信息
固有亮度:
5
最大亮度:
2.5
卫星平台:
Starlink V1.0
覆盖范围:
全球
运营商:
太空探索技术公司
运营商所在国:
美国
制造商(研发单位):
太空探索技术公司
制造商所在国:
美国
使用方式:
暂无
卫星简介
Starlink 计划是 SpaceX 推出的全球卫星互联网项目,通过发射低轨道卫星,为全球尤其是偏远地区提供高速、低延迟的互联网服务。自 2019 年起,Starlink 已部署数千颗卫星,旨在缩小全球数字鸿沟,推动互联网普及。该项目还为军事、航空等行业提供通信支持,带来广泛经济效益。
2D轨道图
3D轨道图
轨道高度分析图
轨道倾角分析图
轨道综合分析图
查看轨道综合分析图